Location: Nairn
(57.5833°N, 3.8667°W)
Time: 18:12:46
(UTC+00:00)

A-11 Canister half - All Passes

Search period start: 04 December 2020 00:00
Search period end: 14 December 2020 00:00
Orbit: 1525 x 1684 km, 47.3° (Epoch: 03 December)

Date Brightness Start Highest point End Pass type
(mag) Time Alt. Az. Time Alt. Az. Time Alt. Az.
04 Dec - 03:06:33 10° SSE 03:11:33 15° SE 03:16:32 10° E visible
04 Dec - 05:05:28 10° SSW 05:14:11 34° SSE 05:22:46 10° E visible
04 Dec - 07:08:19 10° WSW 07:17:46 47° S 07:27:01 10° ESE visible
04 Dec - 09:12:25 10° W 09:21:30 40° SSW 09:30:20 10° SE daylight
04 Dec - 11:17:37 10° W 11:24:28 22° SW 11:31:10 10° S daylight
05 Dec - 02:45:23 10° SSE 02:50:01 14° SE 02:54:38 10° E visible
05 Dec - 04:43:56 10° SSW 04:52:34 33° SSE 05:01:06 10° E visible
05 Dec - 06:46:41 10° WSW 06:56:08 47° S 07:05:25 10° ESE visible
05 Dec - 08:50:46 10° W 08:59:53 41° SSW 09:08:47 10° SE daylight
05 Dec - 10:55:52 10° W 11:02:55 22° SW 11:09:49 10° S daylight
06 Dec - 02:24:15 10° SSE 02:28:29 13° SE 02:32:41 10° ESE visible
06 Dec - 04:22:25 10° SSW 04:30:58 33° SSE 04:39:27 10° E visible
06 Dec - 06:25:03 10° WSW 06:34:31 47° S 06:43:48 10° ESE visible
06 Dec - 08:29:06 10° W 08:38:17 42° SSW 08:47:14 10° SE daylight
06 Dec - 10:34:07 10° W 10:41:21 23° SW 10:48:27 10° S daylight
07 Dec - 02:03:12 10° SSE 02:06:56 13° SE 02:10:40 10° ESE visible
07 Dec - 04:00:54 10° SSW 04:09:23 32° SSE 04:17:47 10° E visible
07 Dec - 06:03:25 10° WSW 06:12:53 46° S 06:22:11 10° ESE visible
07 Dec - 08:07:26 10° W 08:16:40 42° SSW 08:25:41 10° SE daylight
07 Dec - 10:12:22 10° W 10:19:47 24° SW 10:27:03 10° S daylight
08 Dec - 01:42:16 10° SE 01:45:24 12° SE 01:48:33 10° ESE visible
08 Dec - 03:39:24 10° SSW 03:47:47 31° SSE 03:56:07 10° E visible
08 Dec - 05:41:49 10° WSW 05:51:15 46° S 06:00:34 10° ESE visible
08 Dec - 07:45:46 10° W 07:55:03 43° SSW 08:04:07 10° SE visible
08 Dec - 09:50:39 10° W 09:58:13 25° SW 10:05:39 10° S daylight
09 Dec - 01:21:30 10° SE 01:23:53 11° SE 01:26:15 10° ESE visible
09 Dec - 03:17:54 10° SSW 03:26:11 30° SE 03:34:26 10° E visible
09 Dec - 05:20:12 10° WSW 05:29:38 46° S 05:38:56 10° ESE visible
09 Dec - 07:24:07 10° W 07:33:26 44° SSW 07:42:34 10° SE visible
09 Dec - 09:28:56 10° W 09:36:39 26° SW 09:44:14 10° SSE daylight
10 Dec - 01:01:13 10° SE 01:02:21 10° ESE 01:03:29 10° ESE visible
10 Dec - 02:56:25 10° SSW 03:04:35 29° SE 03:12:45 10° E visible
10 Dec - 04:58:35 10° WSW 05:08:00 45° S 05:17:19 10° E visible
10 Dec - 07:02:27 10° W 07:11:49 44° SSW 07:20:59 10° SE visible
10 Dec - 09:07:13 10° W 09:15:05 27° SW 09:22:48 10° SSE daylight
11 Dec - 02:34:56 10° SSW 02:43:01 28° SE 02:51:04 10° E visible
11 Dec - 04:36:59 10° SW 04:46:22 45° SSE 04:55:41 10° E visible
11 Dec - 06:40:48 10° W 06:50:11 45° SSW 06:59:24 10° SE visible
11 Dec - 08:45:30 10° W 08:53:30 28° SW 09:01:22 10° SSE daylight
12 Dec - 02:13:28 10° SSW 02:21:26 27° SE 02:29:23 10° E visible
12 Dec - 04:15:22 10° SW 04:24:45 44° SSE 04:34:03 10° E visible
12 Dec - 06:19:09 10° W 06:28:34 45° S 06:37:50 10° ESE visible
12 Dec - 08:23:47 10° W 08:31:56 29° SW 08:39:55 10° SSE daylight
13 Dec - 01:52:00 10° SSW 01:59:50 26° SE 02:07:40 10° E visible
13 Dec - 03:53:46 10° SW 04:03:07 44° SSE 04:12:25 10° E visible
13 Dec - 05:57:29 10° WSW 06:06:56 46° S 06:16:14 10° ESE visible
13 Dec - 08:02:06 10° W 08:10:20 30° SW 08:18:27 10° SSE visible
13 Dec - 10:10:29 10° WSW 10:12:35 11° WSW 10:14:42 10° SW daylight
